RASSVET-3 9

导读 | 豆包AI

RASSVET-3 9(NORAD编号68368)是俄罗斯私营航天企业Buro 1440公司主导研发的“黎明-3”(Rassvet-3)低轨互联网卫星星座中的一颗,属于俄罗斯打造自主可控低轨卫星互联网(俄版星链)的首批量产运营卫星。卫星质量约370公斤,搭载5G NTN非地面网络通信系统与星间激光通信终端等设备,2026年3月由联盟-2火箭发射入轨,初始轨道近地点290公里、远地点324公里,倾角82.3度,将为构建俄罗斯“主权太空通信网”提供服务,后续经测试后将转移至目标轨道运营。

Basic Information
目录编号:
68368
目录名称:
RASSVET-3 9
国际标识:
2026-061J
轨道中心:
EARTH
卫星名称:
RASSVET-3 9
卫星全名:
RASSVET-3 9
卫星状态:
在轨 (已飞行38 天)
发射日期:
2026-03-23 UTC
国别 :
俄罗斯(独联体) (CIS)
星等 :
--
Orbit Information
数据来源 国际轨道数据
星历时间: 2026-04-30T05:13:22+0800
10小时前
查看轨道信息
半长轴: 6698.062km
偏心率: 0.0009447
轨道倾角: 82.297°
近地点辐角 287.131°
升交点赤经 66.641°
平近点角 72.892°
近地点: 313.597km
远地点: 326.253km
周期: 90.925分钟
每日圈数: 15.837223
Detailed Information
使用方式:
暂无
2D Orbit Map
3D Orbit Map
Orbit Altitude Analysis Chart
Orbit Inclination Analysis Chart
Orbit Comprehensive Analysis Chart
View Comprehensive Chart